Regional Weather Roundup
Issued by NWS Bismarck, ND

Home | Current Version | Previous Version | Text Only | Print | Product List | Glossary On
Versions: 1 2 3 4 5 6 7 8 9 10 11 12 13 14 15 16 17 18 19 20 21 22 23 24 25 26 27 28 29 30 31 32 33 34 35 36 37 38 39 40 41 42 43 44 45 46 47 48 49 50
000
ASUS43 KBIS 041710
RWRBIS

NWR BROADCAST TEXT
NATIONAL WEATHER SERVICE BISMARCK ND
1200 PM CDT SAT JUL 04 2015

NOTE: "FAIR" INDICATES FEW OR NO CLOUDS BELOW 12,000 FEET WITH NO
SIGNIFICANT WEATHER AND/OR OBSTRUCTIONS TO VISIBILITY.


CITY           SKY/WX    TMP DP  RH WIND       PRES   REMARKS
WILLISTON      SUNNY     85  63  47 VRB7      29.73F
MINOT          SUNNY     82  62  50 S15       29.74F HAZE
MINOT AFB      SUNNY     83  71  65 S15       29.73F
BISMARCK       SUNNY     81  67  62 S13       29.79F
DICKINSON      SUNNY     82  66  58 S8        29.78F
GARRISON         N/A     79  67  66 S10       29.77F
HETTINGER ARPT SUNNY     80  65  59 S6        29.82S
JAMESTOWN      SUNNY     81  65  58 S14       29.82F
BEACH          FAIR      84  61  45 SW7       29.79F
CROSBY         FAIR      77  73  88 S7        29.74S
HARVEY         FAIR      82  64  54 S13G18    29.78F HAZE
HAZEN          FAIR      82  64  54 S12       29.77F
LINTON         FAIR      81  72  74 S14       29.80F
MANDAN         FAIR      81  70  69 SE12      29.80F
OAKES            N/A     77  72  83 SE13      29.85F
STANLEY        FAIR      81  70  69 S13       29.76F
$$

CITY           SKY/WX    TMP DP  RH WIND       PRES   REMARKS
GRAND FORKS    CLOUDY    80  66  62 S10       29.82F HAZE
GRAND FORKS AF SUNNY     80  68  66 S10       29.83F HAZE
DEVILS LAKE    SUNNY     82  64  54 S13       29.79F
FARGO          SUNNY     81  69  67 S9        29.85F HAZE
CANDO          FAIR      81  68  65 S13G18    29.79F
CAVALIER       FAIR      81  68  65 S13       29.79F HAZE
GRAFTON        FAIR      81  70  69 S9G16     29.82S HAZE
GWINNER        FAIR      81  66  61 S10       29.87F
LANGDON        FAIR      81  70  69 SW13      29.82S HAZE
ROLLA            N/A     77  68  73 S10       29.80F
WALHALLA       FAIR      81  75  83 MISG      29.79S HAZE
$$

CITY           SKY/WX    TMP DP  RH WIND       PRES   REMARKS
ABERDEEN       SUNNY     80  68  66 S14       29.85F
MOBRIDGE       SUNNY     81  69  67 SE14      29.79F
BUFFALO          N/A     83  61  47 CALM      29.77F
RAPID CITY     SUNNY     82  68  62 S6        29.84F
GLASGOW        SUNNY     88  54  31 VRB3      29.70F
SIDNEY         SUNNY     84  63  48 SE7       29.73F
WOLF POINT     SUNNY     89  59  36 CALM      29.69F
GLENDIVE       SUNNY     88  64  45 S9        29.77S
MILES CITY     SUNNY     89  60  37 SE8       29.76F
BAKER          SUNNY     84  62  47 SW5       29.81F
$$

CITY           SKY/WX    TMP DP  RH WIND       PRES   REMARKS
BILLINGS       MOSUNNY   87  51  28 SW7       29.87S
GREAT FALLS    SUNNY     77  52  41 NW17      29.90R
REGINA         PTSUNNY   73  63  68 N7        29.76S
$$



USA.gov is the U.S. government's official web portal to all federal, state and local government web resources and services.